Track YAOGAN 30 now! 10-day predictions YAOGAN 30 is classified as:
1 41473U 16029A 23270.16067800 .00001430 00000-0 21390-3 0 9995 2 41473 98.0491 316.8412 0017991 180.9455 179.1724 14.76167255397000